Date String (YYYY-MM-DD hh:mm:ss) UTC,Instrument flags,absolute air pressure of the measurement (hPa),sample flow rate (lpm),inlet stack bypass flow (lpm),air temperature of the measurement (°C),ambient temperature measured by the external sensor (°C),aerosol sample conditioner tube jacket temperature (°C),OPC LED temperature (°C),internal box temperature (°C),relative humidity of the measurement (%),span deviation,mass concentration of particles derived from Lorenz-Mie calculation of OPC scattering (μg/m³),mass concentration of particles derived from Lorenz-Mie calculation of OPC scattering (μg/m³),mass concentration of particles derived from Lorenz-Mie calculation of OPC scattering (μg/m³)
DateTimeUTC,F1_M11,P_M11,Q1_M11,Q2_M11,T1_M11,T2_M11,T3_M11,T4_M11,T5_M11,U1_M11,ZSPAN_M11,X2_M11,X0_M11,X1_M11
2024-01-21 14:00:00,SystemResetWarning,0821.1,5.00,000.00,019.1,018.5,000.0,027.5,020.4,17.3,0000.0,0002.57,0008.29,0001.52
2024-01-21 14:01:00,SystemResetWarning,0821.1,5.00,000.00,019.1,018.5,000.0,027.5,020.4,17.3,0000.0,0002.32,0008.22,0001.39
2024-01-21 14:02:00,SystemResetWarning,0821.1,5.00,000.00,019.1,018.6,000.0,027.5,020.4,17.3,0000.0,0002.17,0008.99,0001.29
2024-01-21 14:03:00,SystemResetWarning,0821.1,5.00,000.00,019.1,018.6,000.0,027.5,020.4,17.2,0000.0,0001.96,0008.09,0001.17
2024-01-21 14:04:00,SystemResetWarning,0821.0,5.00,000.00,019.2,018.6,000.0,027.5,020.4,17.2,0000.0,0001.79,0005.98,0001.06
2024-01-21 14:05:00,SystemResetWarning,0821.0,4.99,000.00,019.2,018.6,000.0,027.5,020.4,17.2,0000.0,0001.75,0005.69,0001.03
2024-01-21 14:06:00,SystemResetWarning,0821.0,4.99,000.00,019.2,018.6,000.0,027.5,020.4,17.2,0000.0,0001.55,0005.05,0000.95
2024-01-21 14:07:00,SystemResetWarning,0821.0,5.00,000.00,019.2,018.6,000.0,027.5,020.4,17.2,0000.0,0001.42,0004.78,0000.88
2024-01-21 14:08:00,SystemResetWarning,0821.0,5.00,000.00,019.2,018.6,000.0,027.5,020.5,17.3,0000.0,0001.39,0004.70,0000.86
2024-01-21 14:09:00,SystemResetWarning,0821.0,5.00,000.00,019.2,018.6,000.0,027.5,020.5,17.3,0000.0,0001.36,0004.81,0000.84
2024-01-21 14:10:00,SystemResetWarning,0821.0,4.99,000.00,019.2,018.6,000.0,027.5,020.5,17.2,0000.0,0001.27,0004.58,0000.82
2024-01-21 14:11:00,SystemResetWarning,0821.0,5.00,000.00,019.2,018.6,000.0,027.5,020.5,17.2,0000.0,0001.37,0004.83,0000.94
2024-01-21 14:12:00,SystemResetWarning,0820.9,5.00,000.00,019.2,018.6,000.0,027.6,020.5,17.2,0000.0,0001.69,0007.20,0001.23
2024-01-21 14:13:00,SystemResetWarning,0820.8,5.00,000.00,019.2,018.6,000.0,027.6,020.5,17.2,0000.0,0001.98,0006.41,0001.50
2024-01-21 14:14:00,SystemResetWarning,0820.8,5.00,000.00,019.2,018.6,000.0,027.6,020.5,17.1,0000.0,0002.37,0006.66,0001.88
2024-01-21 14:15:00,SystemResetWarning,0820.8,5.00,000.00,019.2,018.7,000.0,027.6,020.6,17.2,0000.0,0002.83,0007.22,0002.32
2024-01-21 14:16:00,SystemResetWarning,0820.8,5.00,000.00,019.2,018.7,000.0,027.6,020.6,17.2,0000.0,0003.07,0007.46,0002.56
2024-01-21 14:17:00,SystemResetWarning,0821.1,5.00,000.00,019.2,018.7,000.0,027.6,020.6,17.1,0000.0,0003.20,0007.64,0002.75
2024-01-21 14:18:00,SystemResetWarning,0821.1,5.00,000.00,019.2,018.7,000.0,027.6,020.6,17.1,0000.0,0003.29,0007.76,0002.91
2024-01-21 14:19:00,SystemResetWarning,0821.0,5.00,000.00,019.3,018.7,000.0,027.6,020.6,17.1,0000.0,0003.40,0008.48,0003.05
2024-01-21 14:20:00,SystemResetWarning,0821.1,4.99,000.00,019.3,018.7,000.0,027.6,020.6,17.0,0000.0,0003.46,0008.65,0003.11
2024-01-21 14:21:00,SystemResetWarning,0821.2,4.99,000.00,019.3,018.7,000.0,027.6,020.6,17.1,0000.0,0003.47,0008.58,0003.12
2024-01-21 14:22:00,SystemResetWarning,0821.1,5.00,000.00,019.3,018.7,000.0,027.6,020.6,17.1,0000.0,0003.47,0008.59,0003.10
2024-01-21 14:23:00,SystemResetWarning,0821.2,4.99,000.00,019.3,018.7,000.0,027.6,020.6,17.1,0000.0,0003.35,0007.61,0002.90
2024-01-21 14:24:00,SystemResetWarning,0820.9,5.01,000.00,019.3,018.7,000.0,027.6,020.6,17.1,0000.0,0003.12,0005.85,0002.55
2024-01-21 14:25:00,SystemResetWarning,0820.9,5.01,000.00,019.3,018.7,000.0,027.6,020.6,17.1,0000.0,0002.64,0005.21,0002.11
2024-01-21 14:26:00,SystemResetWarning,0820.9,5.00,000.00,019.3,018.7,000.0,027.6,020.6,17.1,0000.0,0002.09,0004.41,0001.64
2024-01-21 14:27:00,SystemResetWarning,0820.9,5.00,000.00,019.3,018.7,000.0,027.6,020.6,17.0,0000.0,0001.80,0003.97,0001.40
2024-01-21 14:28:00,SystemResetWarning,0820.9,4.99,000.00,019.3,018.7,000.0,027.6,020.6,17.1,0000.0,0001.61,0003.68,0001.21
2024-01-21 14:29:00,SystemResetWarning,0821.0,4.99,000.00,019.3,018.7,000.0,027.6,020.6,17.0,0000.0,0001.48,0003.49,0001.07
2024-01-21 14:30:00,SystemResetWarning,0821.1,5.00,000.00,019.3,018.7,000.0,027.6,020.6,17.0,0000.0,0001.34,0002.35,0000.97
2024-01-21 14:31:00,SystemResetWarning,0821.1,5.00,000.00,019.3,018.7,000.0,027.7,020.6,17.0,0000.0,0001.27,0002.10,0000.92
2024-01-21 14:32:00,SystemResetWarning,0821.1,4.99,000.00,019.3,018.7,000.0,027.7,020.6,17.0,0000.0,0001.27,0002.25,0000.93
2024-01-21 14:33:00,SystemResetWarning,0821.1,5.01,000.00,019.3,018.7,000.0,027.7,020.7,17.0,0000.0,0001.20,0002.11,0000.91
2024-01-21 14:34:00,SystemResetWarning,0821.6,5.01,000.00,019.4,018.7,000.0,027.7,020.7,17.2,0000.0,0001.16,0002.07,0000.87
2024-01-21 14:35:00,SystemResetWarning,0821.5,5.01,000.00,019.4,018.8,000.0,027.7,020.7,17.4,0000.0,0001.13,0001.99,0000.87
2024-01-21 14:36:00,SystemResetWarning,0821.2,5.00,000.00,019.4,018.8,000.0,027.7,020.6,17.4,0000.0,0001.19,0002.10,0000.89
2024-01-21 14:37:00,SystemResetWarning,0821.1,5.00,000.00,019.4,018.8,000.0,027.7,020.6,17.3,0000.0,0001.23,0002.20,0000.91
2024-01-21 14:38:00,SystemResetWarning,0821.2,4.98,000.00,019.4,018.7,000.0,027.7,020.6,17.4,0000.0,0001.23,0002.25,0000.92
2024-01-21 14:39:00,SystemResetWarning,0821.2,4.99,000.00,019.3,018.7,000.0,027.7,020.6,17.4,0000.0,0001.20,0002.12,0000.92
2024-01-21 14:40:00,SystemResetWarning,0821.2,5.00,000.00,019.3,018.7,000.0,027.7,020.6,17.4,0000.0,0001.17,0002.07,0000.92
2024-01-21 14:41:00,SystemResetWarning,0821.2,5.00,000.00,019.3,018.7,000.0,027.7,020.6,17.3,0000.0,0001.14,0002.02,0000.90
2024-01-21 14:42:00,SystemResetWarning,0821.2,5.01,000.00,019.3,018.7,000.0,027.7,020.6,17.3,0000.0,0001.10,0001.78,0000.88
2024-01-21 14:43:00,SystemResetWarning,0821.2,5.01,000.00,019.3,018.7,000.0,027.7,020.6,17.3,0000.0,0001.08,0001.62,0000.87
2024-01-21 14:44:00,SystemResetWarning,0821.2,5.00,000.00,019.3,018.7,000.0,027.7,020.6,17.3,0000.0,0001.07,0001.54,0000.86
2024-01-21 14:45:00,SystemResetWarning,0821.2,5.00,000.00,019.3,018.7,000.0,027.7,020.6,17.3,0000.0,0001.07,0001.54,0000.87
2024-01-21 14:46:00,SystemResetWarning,0821.2,4.99,000.00,019.3,018.7,000.0,027.7,020.6,17.3,0000.0,0001.07,0001.53,0000.86
2024-01-21 14:47:00,SystemResetWarning,0821.2,4.99,000.00,019.3,018.7,000.0,027.7,020.6,17.3,0000.0,0001.03,0001.46,0000.83
2024-01-21 14:48:00,SystemResetWarning,0821.3,5.00,000.00,019.3,018.7,000.0,027.7,020.6,17.3,0000.0,0000.98,0001.37,0000.80
2024-01-21 14:49:00,SystemResetWarning,0821.3,5.02,000.00,019.3,018.7,000.0,027.7,020.6,17.3,0000.0,0000.94,0001.26,0000.76
2024-01-21 14:50:00,SystemResetWarning,0821.3,5.00,000.00,019.3,018.7,000.0,027.7,020.6,17.3,0000.0,0000.92,0001.23,0000.74
2024-01-21 14:51:00,SystemResetWarning,0821.3,4.99,000.00,019.3,018.7,000.0,027.7,020.6,17.3,0000.0,0000.91,0001.21,0000.73
2024-01-21 14:52:00,SystemResetWarning,0821.3,5.00,000.00,019.3,018.7,000.0,027.7,020.6,17.3,0000.0,0000.91,0001.23,0000.71
2024-01-21 14:53:00,SystemResetWarning,0821.3,5.01,000.00,019.3,018.8,000.0,027.7,020.7,17.3,0000.0,0000.89,0001.21,0000.70
2024-01-21 14:54:00,SystemResetWarning,0821.3,5.00,000.00,019.4,018.8,000.0,027.7,020.7,17.2,0000.0,0000.85,0001.17,0000.65
2024-01-21 14:55:00,SystemResetWarning,0821.3,5.00,000.00,019.4,018.8,000.0,027.7,020.7,17.2,0000.0,0000.85,0001.18,0000.65
2024-01-21 14:56:00,SystemResetWarning,0821.3,5.00,000.00,019.4,018.8,000.0,027.7,020.7,17.2,0000.0,0001.13,0001.59,0000.91
2024-01-21 14:57:00,SystemResetWarning,0821.3,5.00,000.00,019.4,018.8,000.0,027.7,020.7,17.1,0000.0,0001.55,0002.19,0001.28
2024-01-21 14:58:00,SystemResetWarning,0821.3,5.00,000.00,019.4,018.8,000.0,027.7,020.7,17.1,0000.0,0001.90,0002.67,0001.55
2024-01-21 14:59:00,SystemResetWarning,0821.3,4.99,000.00,019.4,018.8,000.0,027.7,020.7,17.1,0000.0,0002.26,0003.24,0001.85
